[[{"header":{"parameterUnit":"m.s-1","parameterCategory":1,"la1":30.2991,"la2":30.254,"lo1":-89.0895,"lo2":-89.0444,"dy":0.0017,"dx":0.0017,"nx":28,"ny":28,"refTime":"2023-09-28T03:00:00:Z","depth":0,"parameterNumber":2,"parameterNumberName":"U-component_of_WINDS"},"data":[0,0,0,0,0,0,0,0,0,0,0,0,0,0,0,0,0,0,0,0,0,0,0,0,0,0,0,0,0,0,0,0,0,0,0,0,0,0,0,0,0,0,0,0,0,0,0,0,0,0,0,0,0,0,0,0,0,0,-5.2808,-5.2808,0,-5.2847,-5.2847,-5.2848,-5.2731,-5.2728,-5.2724,-5.2721,-5.2764,-5.2768,-5.2773,0,0,0,0,0,0,0,0,0,0,0,0,0,-5.2636,-5.264,-5.2808,-5.2808,-5.2809,-5.2847,-5.2847,-5.2848,-5.2732,-5.2728,-5.2723,-5.2719,-5.2762,-5.2768,-5.2773,0,0,0,0,0,0,0,0,0,0,0,0,0,-5.2696,-5.2641,-5.2808,-5.2755,-5.2751,-5.2847,-5.2847,-5.2848,-5.2733,-5.2727,-5.2722,-5.2717,-5.2761,-5.2767,-5.2774,-5.2923,0,0,-5.2794,-5.2797,0,0,0,0,0,0,0,0,-5.2693,-5.2703,-5.2762,-5.2759,-5.2754,-5.2778,-5.2802,-5.2873,-5.2734,-5.274,-5.2721,-5.2714,-5.2773,-5.2779,-5.2798,-5.2925,-5.2926,-5.2795,-5.2799,-5.2802,-5.2804,0,0,0,0,0,0,0,-5.2689,-5.27,-5.2823,-5.2764,-5.2759,-5.2731,-5.2734,-5.2815,-5.2786,-5.2739,-5.2731,-5.2737,-5.277,-5.2792,-5.2798,-5.2927,-5.2795,-5.2801,-5.2805,-5.2808,-5.3179,-5.3185,0,0,0,0,0,0,-5.2691,-5.2698,-5.2822,-5.2824,-5.271,-5.2738,-5.2741,-5.2776,-5.2785,-5.2781,-5.2741,-5.2731,-5.2783,-5.279,-5.2799,-5.2975,-5.2802,-5.2808,-5.2812,-5.3173,-5.318,-5.3187,0,0,0,0,0,0,-5.2688,-5.2703,-5.282,-5.2759,-5.2771,-5.2747,-5.2787,-5.278,-5.2801,-5.2787,-5.2781,-5.2768,-5.2779,-5.279,-5.2893,-5.2974,-5.2811,-5.2817,-5.3167,-5.3176,-5.3184,-5.3327,0,0,0,0,0,0,-5.2684,-5.2703,-5.2758,-5.2761,-5.2775,-5.2913,-5.2792,-5.2785,-5.2813,-5.28,-5.2811,-5.2807,-5.2776,-5.2883,-5.29,-5.2981,-5.2823,-5.3159,-5.3171,-5.3181,-5.3315,-5.3339,-5.336,0,0,0,0,0,-5.2678,-5.2798,-5.2762,-5.2777,-5.2844,-5.2918,-5.2926,-5.2886,-5.282,-5.2876,-5.2867,-5.2807,-5.2963,-5.2895,-5.2912,-5.2997,-5.3154,-5.3167,-5.318,-5.3304,-5.3334,-5.336,0,0,0,0,0,0,-5.2806,-5.2797,-5.2757,-5.2881,-5.2901,-5.2898,-5.2967,-5.2919,-5.2959,-5.2945,-5.2895,-5.2898,-5.3011,-5.3014,-5.2939,-5.3142,-5.3047,-5.3064,-5.3136,-5.3164,-5.3187,-5.3184,-5.2828,0,0,0,0,0,-5.2849,-5.2909,-5.2897,-5.3008,-5.302,-5.2993,-5.3023,-5.299,-5.3009,-5.3018,-5.3016,-5.3037,-5.3091,-5.3128,-5.3176,-5.3314,-5.3316,-5.3381,-5.3404,-5.3423,-5.3439,-5.3513,-5.3542,-5.323,-5.323,-5.323,0,0,-5.2938,-5.294,-5.2981,-5.3034,-5.3045,-5.311,-5.3,-5.3072,-5.312,-5.3029,-5.3126,-5.3126,-5.3147,-5.3268,-5.3322,-5.3274,-5.3525,-5.344,-5.3455,-5.346,-5.353,-5.3559,-5.3586,-5.3239,-5.3237,-5.3236,0,0,-5.3133,-5.314,-5.3233,-5.3247,-5.3266,-5.3247,-5.3269,-5.3274,-5.327,-5.3366,-5.33,-5.3356,-5.3449,-5.3467,-5.3489,-5.3691,-5.3638,-5.3709,-5.3829,-5.3902,-5.3926,-5.3948,-5.4022,-5.4048,-5.3724,-5.3725,-5.3725,0,-5.3241,-5.3334,-5.3288,-5.3365,-5.339,-5.331,-5.3405,-5.3421,-5.3455,-5.3475,-5.3421,-5.3537,-5.3546,-5.3671,-5.372,-5.374,-5.3765,-5.3707,-5.3926,-5.3948,-5.3967,-5.4037,-5.4064,-5.3733,-5.3732,-5.3731,-5.373,0,-5.3467,-5.3533,-5.3606,-5.364,-5.3674,-5.376,-5.3728,-5.3768,-5.3733,-5.372,-5.382,-5.3827,-5.3876,-5.3903,-5.387,-5.4025,-5.3995,-5.3935,-5.3839,-5.4006,-5.4071,-5.4097,-5.3745,-5.3742,-5.374,-5.3738,0,0,-5.3744,-5.3752,-5.378,-5.3794,-5.3809,-5.386,-5.3942,-5.3989,-5.4026,-5.4052,-5.4121,-5.4202,-5.4147,-5.4171,-5.4139,-5.4203,-5.4365,-5.4135,-5.4135,-5.4179,-5.4537,-5.4583,-5.4615,-5.433,-5.4335,-5.4338,-5.4536,0,-5.3937,-5.4077,-5.4038,-5.4179,-5.424,-5.4165,-5.4237,-5.4255,-5.4245,-5.4296,-5.4285,-5.4344,-5.4266,-5.4281,-5.4341,-5.4333,-5.4437,-5.4318,-5.4395,-5.4398,-5.4393,-5.4648,-5.4697,-5.4883,-5.4561,-5.4565,-5.4568,0,-5.418,-5.4216,-5.4363,-5.4368,-5.4392,-5.4458,-5.4498,-5.4547,-5.4567,-5.4555,-5.4583,-5.4538,-5.4621,-5.4524,-5.4638,-5.4559,-5.4588,-5.4589,-5.4595,-5.4602,-5.4494,-5.4663,-5.4941,-5.497,-5.4607,-5.4604,-5.4601,0,-5.4369,-5.4454,-5.4552,-5.4567,-5.4576,-5.4624,-5.463,-5.4644,-5.4675,-5.4711,-5.4731,-5.4777,-5.4802,-5.4839,-5.4808,-5.474,-5.4928,-5.4828,-5.4922,-5.4923,-5.4966,-5.4964,-5.5254,-5.4983,-5.4983,-5.4982,-5.4982,0,-5.4589,-5.4682,-5.4637,-5.4699,-5.4801,-5.4756,-5.4859,-5.4857,-5.487,-5.493,-5.4868,-5.4926,-5.4881,-5.4936,-5.4913,-5.5012,-5.5023,-5.5018,-5.5011,-5.5024,-5.5025,-5.5043,-5.503,-5.499,-5.4988,-5.4987,-5.4986,0,-5.4817,-5.4791,-5.4894,-5.4894,-5.4896,-5.4972,-5.4972,-5.5029,-5.5015,-5.5092,-5.5108,-5.5087,-5.5148,-5.512,-5.5185,-5.5169,-5.5297,-5.5272,-5.5291,-5.5284,-5.538,-5.5372,-5.5693,-5.5734,-5.5436,-5.5439,-5.5442,0,-5.496,-5.503,-5.5037,-5.5072,-5.5082,-5.514,-5.5172,-5.513,-5.5166,-5.5193,-5.5248,-5.5303,-5.5346,-5.5448,-5.5439,-5.5488,-5.5465,-5.5574,-5.5472,-5.5483,-5.5468,-5.5464,-5.5472,-5.5595,-5.5598,-5.5601,-5.5603,0,-5.5216,-5.5199,-5.5246,-5.529,-5.5329,-5.5361,-5.5388,-5.5421,-5.538,-5.5424,-5.5485,-5.5518,-5.5584,-5.5641,-5.5684,-5.5692,-5.5642,-5.5635,-5.566,-5.5675,-5.5683,-5.5681,-5.5347,-5.5628,-5.5626,-5.5624,-5.5623,-5.5622,-5.5406,-5.5465,-5.548,-5.5534,-5.555,-5.5577,-5.5631,-5.5623,-5.5674,-5.5723,-5.5696,-5.5768,-5.5787,-5.584,-5.5854,-5.5911,-5.5868,-5.5904,-5.5913,-5.5923,-5.5936,-5.5673,-5.5919,-5.5918,-5.5917,-5.5917,-5.5916,0,-5.566,-5.5665,-5.5716,-5.5756,-5.5799,-5.5747,-5.5774,-5.5815,-5.5879,-5.5899,-5.5942,-5.6014,-5.6069,-5.6064,-5.6115,-5.6162,-5.614,-5.6177,-5.6173,-5.6176,-5.597,-5.5945,-5.6193,-5.6193,-5.6193,-5.6193,-5.6193,-5.6193,-5.5797,-5.5894,-5.588,-5.5985,-5.599,-5.6059,-5.608,-5.6105,-5.6121,-5.6203,-5.6248,-5.6244,-5.6255,-5.6307,-5.6355,-5.6352,-5.6375,-5.642,-5.6409,-5.6218,-5.619,-5.6164,-5.614,-5.6425,-5.6425,-5.661,-5.6612,-5.6613]},{"header":{"parameterUnit":"m.s-1","parameterCategory":1,"la1":30.2991,"la2":30.254,"lo1":-89.0895,"lo2":-89.0444,"dy":0.0017,"dx":0.0017,"nx":28,"ny":28,"refTime":"2023-09-28T03:00:00:Z","depth":0,"parameterNumber":3,"parameterNumberName":"V-component_of_WINDS"},"data":[0,0,0,0,0,0,0,0,0,0,0,0,0,0,0,0,0,0,0,0,0,0,0,0,0,0,0,0,0,0,0,0,0,0,0,0,0,0,0,0,0,0,0,0,0,0,0,0,0,0,0,0,0,0,0,0,0,0,-2.1447,-2.1448,0,-2.1516,-2.1517,-2.1517,-2.1538,-2.1538,-2.1537,-2.1537,-2.1605,-2.1607,-2.1609,0,0,0,0,0,0,0,0,0,0,0,0,0,-2.133,-2.1332,-2.1447,-2.1448,-2.1449,-2.1516,-2.1517,-2.1518,-2.1538,-2.1538,-2.1537,-2.1537,-2.1604,-2.1607,-2.161,0,0,0,0,0,0,0,0,0,0,0,0,0,-2.1388,-2.1333,-2.1447,-2.1467,-2.147,-2.1516,-2.1517,-2.1518,-2.1538,-2.1538,-2.1537,-2.1537,-2.1604,-2.1607,-2.161,-2.164,0,0,-2.162,-2.1621,0,0,0,0,0,0,0,0,-2.1385,-2.1392,-2.1463,-2.1466,-2.1469,-2.1518,-2.1501,-2.1559,-2.1538,-2.1512,-2.1537,-2.1537,-2.1576,-2.1582,-2.1596,-2.1643,-2.1646,-2.162,-2.1622,-2.1623,-2.1624,0,0,0,0,0,0,0,-2.1381,-2.139,-2.1474,-2.1464,-2.1468,-2.1472,-2.1479,-2.1512,-2.1546,-2.1514,-2.1516,-2.1524,-2.1578,-2.1593,-2.1598,-2.1647,-2.162,-2.1623,-2.1625,-2.1626,-2.1722,-2.1722,0,0,0,0,0,0,-2.1374,-2.1386,-2.1472,-2.1476,-2.1425,-2.1474,-2.1483,-2.1503,-2.1546,-2.1552,-2.1524,-2.1525,-2.1587,-2.1594,-2.16,-2.1637,-2.1623,-2.1626,-2.1628,-2.1721,-2.1722,-2.1723,0,0,0,0,0,0,-2.1371,-2.1381,-2.1469,-2.1432,-2.1443,-2.1477,-2.1499,-2.1504,-2.1519,-2.1554,-2.156,-2.1533,-2.1587,-2.1595,-2.163,-2.164,-2.1628,-2.1631,-2.172,-2.1721,-2.1722,-2.1713,0,0,0,0,0,0,-2.1368,-2.138,-2.1393,-2.1432,-2.1445,-2.1499,-2.15,-2.1506,-2.1525,-2.1526,-2.1564,-2.1569,-2.1588,-2.1625,-2.1633,-2.1644,-2.1633,-2.172,-2.1721,-2.1722,-2.1712,-2.1713,-2.1714,0,0,0,0,0,-2.1364,-2.1387,-2.1393,-2.1403,-2.1461,-2.1499,-2.1507,-2.1528,-2.1526,-2.1538,-2.156,-2.1568,-2.1638,-2.1628,-2.1638,-2.165,-2.1719,-2.172,-2.1722,-2.1712,-2.1713,-2.1714,0,0,0,0,0,0,-2.1347,-2.1392,-2.14,-2.1437,-2.1464,-2.1503,-2.1519,-2.1529,-2.1556,-2.1556,-2.158,-2.1589,-2.1621,-2.1639,-2.1628,-2.1681,-2.1679,-2.1682,-2.1668,-2.1669,-2.167,-2.1665,-2.1636,0,0,0,0,0,-2.1348,-2.1375,-2.1413,-2.1442,-2.1455,-2.1485,-2.1502,-2.1516,-2.1545,-2.1556,-2.1581,-2.1608,-2.1636,-2.1654,-2.1682,-2.1715,-2.1723,-2.1728,-2.1729,-2.173,-2.1732,-2.1751,-2.1753,-2.1727,-2.1727,-2.1727,0,0,-2.1349,-2.1377,-2.1393,-2.1439,-2.1462,-2.1489,-2.1494,-2.1523,-2.1543,-2.156,-2.1594,-2.1613,-2.1645,-2.1679,-2.1695,-2.1695,-2.1741,-2.1732,-2.1732,-2.1734,-2.1752,-2.1755,-2.1757,-2.1728,-2.1728,-2.1728,0,0,-2.1365,-2.139,-2.1417,-2.144,-2.1474,-2.1494,-2.15,-2.1538,-2.1551,-2.1586,-2.1599,-2.1623,-2.1671,-2.1693,-2.171,-2.1735,-2.1744,-2.1744,-2.1748,-2.1766,-2.1768,-2.177,-2.1778,-2.1781,-2.1746,-2.1746,-2.1746,0,-2.1362,-2.1405,-2.1429,-2.1457,-2.1476,-2.1494,-2.1521,-2.1541,-2.1583,-2.1596,-2.1595,-2.1656,-2.1678,-2.1717,-2.1723,-2.1737,-2.1744,-2.1739,-2.1766,-2.1768,-2.177,-2.1778,-2.1781,-2.1746,-2.1746,-2.1746,-2.1746,0,-2.1399,-2.1429,-2.1446,-2.1486,-2.1508,-2.1535,-2.1562,-2.158,-2.1593,-2.1612,-2.1646,-2.1674,-2.1708,-2.1718,-2.173,-2.1759,-2.1758,-2.1761,-2.1759,-2.1772,-2.178,-2.1783,-2.1745,-2.1745,-2.1746,-2.1746,0,0,-2.1406,-2.146,-2.1466,-2.1485,-2.1525,-2.1547,-2.1575,-2.1608,-2.1624,-2.1652,-2.1675,-2.1715,-2.1719,-2.1738,-2.1753,-2.1769,-2.1786,-2.177,-2.1771,-2.1771,-2.1818,-2.1815,-2.1818,-2.1792,-2.1793,-2.1793,-2.1816,0,-2.1427,-2.1478,-2.15,-2.1541,-2.1568,-2.1585,-2.1609,-2.1636,-2.1654,-2.1679,-2.1699,-2.1727,-2.173,-2.1742,-2.1759,-2.178,-2.1795,-2.1779,-2.1813,-2.1814,-2.1803,-2.1823,-2.1819,-2.1839,-2.1819,-2.1819,-2.182,0,-2.1459,-2.1488,-2.1531,-2.1568,-2.158,-2.1601,-2.1633,-2.1657,-2.1687,-2.17,-2.1722,-2.1736,-2.1765,-2.1761,-2.1801,-2.1789,-2.1804,-2.1817,-2.1818,-2.1821,-2.1817,-2.1826,-2.1846,-2.1848,-2.1825,-2.1825,-2.1824,0,-2.1458,-2.1509,-2.1541,-2.1556,-2.16,-2.1614,-2.1633,-2.1663,-2.1682,-2.171,-2.1722,-2.1753,-2.1769,-2.1792,-2.1814,-2.181,-2.1851,-2.185,-2.1861,-2.1861,-2.1869,-2.1868,-2.1891,-2.188,-2.1879,-2.1879,-2.1879,0,-2.1479,-2.1505,-2.1542,-2.1561,-2.159,-2.1615,-2.1643,-2.1662,-2.1689,-2.1712,-2.1729,-2.175,-2.1778,-2.1802,-2.1819,-2.1849,-2.1857,-2.1867,-2.1871,-2.1865,-2.1863,-2.1874,-2.1873,-2.188,-2.188,-2.188,-2.188,0,-2.1483,-2.1509,-2.1546,-2.1584,-2.1595,-2.1614,-2.1647,-2.1666,-2.1686,-2.1715,-2.1723,-2.1754,-2.1784,-2.1808,-2.1846,-2.1858,-2.1889,-2.1894,-2.1879,-2.1881,-2.1891,-2.1889,-2.1921,-2.1926,-2.1912,-2.1912,-2.1912,0,-2.1495,-2.1515,-2.1556,-2.1573,-2.1592,-2.1619,-2.1639,-2.1664,-2.1683,-2.1719,-2.1734,-2.1765,-2.1791,-2.1838,-2.1863,-2.1893,-2.1898,-2.1907,-2.1902,-2.1896,-2.1897,-2.1896,-2.1897,-2.1907,-2.1907,-2.1907,-2.1907,0,-2.1511,-2.1523,-2.1551,-2.1583,-2.1606,-2.1633,-2.1659,-2.1672,-2.1702,-2.1722,-2.1754,-2.1774,-2.1814,-2.1844,-2.1877,-2.1895,-2.1906,-2.1909,-2.1913,-2.1907,-2.1897,-2.1902,-2.1879,-2.1908,-2.1908,-2.1908,-2.1908,-2.1908,-2.1519,-2.1538,-2.1569,-2.16,-2.1623,-2.1647,-2.1667,-2.169,-2.1717,-2.1751,-2.1764,-2.1796,-2.1825,-2.187,-2.1889,-2.1913,-2.1914,-2.192,-2.1922,-2.1923,-2.1922,-2.1894,-2.1919,-2.1919,-2.1919,-2.1919,-2.1919,0,-2.1536,-2.1557,-2.1585,-2.1622,-2.1646,-2.1655,-2.1685,-2.1704,-2.1732,-2.1759,-2.1785,-2.182,-2.185,-2.1877,-2.1908,-2.1922,-2.1928,-2.193,-2.1928,-2.1932,-2.1919,-2.1912,-2.1925,-2.1924,-2.1924,-2.1924,-2.1924,-2.1924,-2.1547,-2.1579,-2.1595,-2.1638,-2.1659,-2.1691,-2.1707,-2.173,-2.1751,-2.1791,-2.1816,-2.1834,-2.1861,-2.1894,-2.1921,-2.1928,-2.1939,-2.1939,-2.1947,-2.1934,-2.1933,-2.1932,-2.1926,-2.1941,-2.1941,-2.1958,-2.1958,-2.1958]}]]